Regional Weather Roundup
Issued by NWS

Home | Current Version | Previous Version | Text Only | Print | Product List | Glossary Off
Versions: 1 2 3 4 5 6 7 8 9 10 11 12 13 14 15 16 17 18 19 20 21 22 23 24 25 26 27 28 29 30 31 32 33 34 35 36 37 38 39 40 41 42 43 44 45 46 47 48 49 50

000
ASUS43 KMPX 280910
RWRMN
WEATHER ROUNDUP FOR MINNESOTA
NATIONAL WEATHER SERVICE TWIN CITIES/CHANHASSEN MN
300 AM CST SUN DEC 28 2014


NOTE: "FAIR" INDICATES FEW OR NO CLOUDS BELOW 12,000 FEET WITH NO
SIGNIFICANT WEATHER AND/OR OBSTRUCTIONS TO VISIBILITY. N/A MEANS
CURRENT SKY AND/OR WEATHER CONDITIONS ARE NOT AVAILABLE.

MNZ060>063-068>070-281000-
   Twin Cities Metro

CITY           SKY/WX    TMP DP  RH WIND       PRES   REMARKS
TWIN CITIES    MOCLDY    12   7  80 SW6       30.10R WCI   3
ST PAUL        CLOUDY    13   8  81 CALM      30.12R
CRYSTAL        FAIR      13   8  81 SW5       30.08R WCI   5
BLAINE         CLOUDY    16  12  86 SW5       30.07S WCI   9
LAKEVILLE      PTCLDY     9   7  92 S5        30.08F WCI   0
EDEN PRAIRIE   PTCLDY     9   6  88 SW3       30.09R
SOUTH ST PAUL  CLOUDY    15   9  80 CALM      30.10S
LAKE ELMO      CLOUDY    14  10  85 SW5       30.09S WCI   6
$$
MNZ001>005-007-008-013>017-022>024-027-028-281000-
   Northwest Minnesota

CITY           SKY/WX    TMP DP  RH WIND       PRES   REMARKS
BEMIDJI        LGT SNOW  11   7  84 N7        30.05R WCI   1
HALLOCK        CLEAR     -6 -13  71 N12       30.19R WCI -24
ROSEAU         CLEAR     -2  -8  78 W7        30.14R WCI -16
WARROAD        CLOUDY     0  -6  78 NW7       30.12R WCI -13
THIEF RVR FALL CLOUDY     1  -4  78 N12       30.13R WCI -15
CROOKSTON      CLOUDY     5   0  78 N18       30.18R WCI -15
FOSSTON        CLOUDY     5   0  78 N16       30.10R WCI -14
DETROIT LAKES  CLOUDY    19  18  93 N16       30.05R WCI   5
MOORHEAD       MIX PCPN  16  12  86 N17       30.11R WCI   0
PARK RAPIDS    FLURRIES  20  15  81 NW10      30.01R WCI   9
MAHNOMEN       FLURRIES  11   7  83 N15       30.08R WCI  -6
$$
MNZ006-009>011-018-025>026-281000-
   North Central Minnesota

CITY           SKY/WX    TMP DP  RH WIND       PRES   REMARKS
BAUDETTE       CLOUDY    -1  -7  75 NW12      30.10R WCI -18
FLAG ISLAND    MOCLDY    -2  -8  78 NW15      30.10R WCI -22
INTL FALLS     MOCLDY    -2  -6  83 NW8       30.06R WCI -17
WASKISH        PTCLDY     0  -4  85 NW8       30.09R WCI -15
BIG FORK       FLURRIES  10   3  72 NW6       30.04R WCI   1
LONGVILLE      FLURRIES  18  14  86 NW3       30.02R
GRAND RAPIDS   CLOUDY    16   9  73 NW10      30.00R WCI   3
CRANE LAKE     MOCLDY     7   1  78 CALM      30.05R
ORR            CLOUDY     9   1  72 NW6       29.99R WCI  -1
COOK           FLURRIES  10   7  85 NW7       30.01R WCI   0
WALKER         FLURRIES  15  10  81 N3        30.03R
$$
MNZ012-019>021-037-281000-
   Northeast Minnesota

CITY           SKY/WX    TMP DP  RH WIND       PRES   REMARKS
DULUTH         FLURRIES  19  12  74 NW9       29.98R WCI   8
ELY            FLURRIES  12   7  79 W6        29.96R WCI   3
HIBBING        CLOUDY    16   8  71 NW12      30.00R WCI   3
EVELETH        FLURRIES  16  10  79 NW6       30.00R WCI   7
DULUTH HARBOR  CLOUDY    21  16  79 CALM      30.05R
TWO HARBORS    FLURRIES  19  14  79 W3        29.98R
SILVER BAY     CLOUDY    18  10  73 W7        29.96R WCI   8
GRAND MARAIS     N/A     17   8  67 SW3       29.99R
G MARAIS ARPRT FLURRIES   9   1  72 W8G16     29.89R WCI  -4
$$
MNZ029>031-032-039>041-046>048-054>057-064-281000-
   West Central Minnesota

CITY           SKY/WX    TMP DP  RH WIND       PRES   REMARKS
FERGUS FALLS   CLOUDY    19  18  93 NW5       30.08R WCI  13
WHEATON        MOCLDY    16  12  86 W8        30.09R WCI   5
MORRIS         CLEAR     12   9  85 CALM      30.05R
ALEXANDRIA     PTCLDY    13  10  88 W5        30.03R WCI   5
ELBOW LAKE     FAIR      14  13  95 NW5       30.04R WCI   7
WADENA         CLOUDY    21  18  86 NW6       30.02R WCI  14
GLENWOOD       CLEAR      9   7  92 SW7       30.03S WCI  -3
APPLETON       CLEAR     12  10  92 SW6       30.07R WCI   3
BENSON         CLEAR     10   9  92 W3        30.06R
ORTONVILLE     CLEAR     16  12  86 W6        30.07R WCI   7
MADISON        CLEAR     19  16  86 W6        30.07S WCI  11
WILLMAR        FAIR      12   9  85 SW6       30.07S WCI   3
$$
MNZ033>034-036-042>043-049>051-058-059-281000-
   Central Minnesota

CITY           SKY/WX    TMP DP  RH WIND       PRES   REMARKS
ST CLOUD       CLOUDY    19  13  77 SW5       30.05R WCI  12
SAUK CENTRE    FAIR      11   9  92 CALM      30.04S
PAYNESVILLE    CLEAR      9   8  97 SW6       30.06R WCI  -1
AITKIN         CLOUDY    25  18  74 CALM      30.00R
PINE RIVER     CLOUDY    19  18  93 NW5       30.05R WCI  13
BRAINERD       CLOUDY    20  16  84 SW5       30.03R WCI  13
STAPLES        CLOUDY    21  18  86 NW5       30.02R WCI  15
LONG PRAIRIE   FAIR      12  10  92 CALM      30.03R
LITTLE FALLS   CLOUDY    18  14  86 CALM      30.04R
LITCHFIELD     CLEAR     10  10 100 SW3       30.07R
BUFFALO        PTCLDY    10   7  87 CALM      30.09R
MAPLE LAKE     PTCLDY    13  11  92 CALM      30.08R
$$
MNZ037-044-045-052-053-281000-
   East Central Minnesota

CITY           SKY/WX    TMP DP  RH WIND       PRES   REMARKS
PRINCETON      CLOUDY    16  12  86 CALM      30.05S
MORA           MOCLDY    14  10  85 S5        30.07R WCI   6
CAMBRIDGE      CLEAR     10   5  79 CALM      30.05S
RUSH CITY      CLEAR      9   7  91 CALM      30.07R
MOOSE LAKE     FLURRIES  19  16  86 SW3       30.01R
HINCKLEY       CLOUDY    19  16  86 CALM      30.05R
CLOQUET        FLURRIES  19  14  79 W6        30.00R WCI  11
MCGREGOR       CLOUDY    23  19  86 W3        30.02R
$$
MNZ071>073-080-081-089-090-097-098-281000-
   Southwest Minnesota

CITY           SKY/WX    TMP DP  RH WIND       PRES   REMARKS
MONTEVIDEO     CLEAR     14  12  92 W6        30.08S WCI   5
GRANITE FALLS  PTCLDY    13  10  87 S7        30.10R WCI   3
CANBY          PTCLDY    17  13  85 W10       30.07S WCI   5
MARSHALL       PTCLDY    14   9  79 NW6       30.07R WCI   5
REDWOOD FALLS  CLEAR     10   6  84 SW10      30.08R WCI  -4
OLIVIA         PTCLDY    10   9  92 SW6       30.08R WCI   1
PIPESTONE      PTCLDY     7   5  92 CALM      30.05S FOG
WINDOM         CLEAR      9   7  92 CALM      30.08R
WORTHINGTON    MOCLDY    10 -31  13 SW10      30.07R WCI  -3
JACKSON        CLEAR     12   9  85 SW5       30.09R WCI   4
TRACY          CLEAR     15  12  88 SW10      30.06S WCI   3
SLAYTON        MOCLDY    13  10  87 SW6       30.06R WCI   3
$$
MNZ065>067-074>077-082>085-091>093-281000-
   South Central Minnesota

CITY           SKY/WX    TMP DP  RH WIND       PRES   REMARKS
MANKATO        CLEAR     10   3  72 S7        30.10S WCI   0
NEW ULM        CLEAR      7   5  92 SW5       30.09  WCI  -2
ST JAMES       CLEAR     10   7  85 S5        30.11S WCI   2
FAIRMONT       CLEAR     10   7  85 SW6       30.10R WCI   1
GLENCOE        PTCLDY     4   2  91 SW3       30.08S
FARIBAULT      CLEAR      7   5  92 S5        30.11R WCI  -2
OWATONNA       CLEAR      9   3  78 SW3       30.10S
WASECA         CLEAR      5   3  92 S3        30.12R
ALBERT LEA     CLEAR     10  10 100 CALM      30.11R
$$
MNZ078>079-086>088-094>096-281000-
   Southeast Minnesota

CITY           SKY/WX    TMP DP  RH WIND       PRES   REMARKS
ROCHESTER      PTCLDY     5   2  87 SW7       30.09S WCI  -7
RED WING       PTCLDY     3   0  85 CALM      30.11S
STANTON        CLEAR      9   5  86 S3        30.10S
DODGE CENTER   PTCLDY     7   5  92 SW9       30.09R WCI  -7
WINONA         CLEAR     10   9  92 CALM      30.14F
AUSTIN         CLEAR      7   3  85 SW5       30.11S WCI  -2
PRESTON        PTCLDY     8   5  87 SW5       30.11S WCI   0
$$
ABBREVIATIONS USED IN REMARKS
   TC - TEMPERATURES IN CELSIUS
  WCI - WIND CHILL INDEX
   HX - HEAT INDEX
  VSB - VISIBILITY
$$



USA.gov is the U.S. government's official web portal to all federal, state and local government web resources and services.